Notices

What's New in latest Release from April 7th, 2021:

- Updated Glossary, including Speed of Maximum Gust, and Total Hourly Precipitation

- Updated national and regional climate services offices contacts and prices information

- Addition of station inventory lists for 1981-2010, 1971-2000, and 1961-1990 Normals.

If you haven't already, please take our survey and provide feedback about our website: https://eccc.sondage-survey.ca/f/LanguageSelection.aspx?s=442ca660-fcf1-47c0-95a9-59707d6fd709

Hourly Data Report for June 03, 2015

KELOWNA UBCO
BRITISH COLUMBIA

49°56'26.700" N
119°24'00.760" W
456.00 m
1123996
71644
VKU

Download Data

Hourly Data (June 2015)
Hourly Data Report for June 3, 2015
TIME
LST
Temp Definition
°C
Dew Point Definition
°C
Rel Hum Definition
%
Precip. Amount Definition
mm

Wind Dir Definition
10's deg

Wind Spd Definition
km/h
Visibility Definition
km
Stn Press Definition
kPa
Hmdx Definition


Wind Chill Definition


Weather Definition


00:00 14.3 8.1 66 0.0       96.07     LegendNANA
01:00 13.8 8.1 68 0.0       96.06     LegendNANA
02:00 12.6 9.2 80 0.0       96.07     LegendNANA
03:00 12.0 9.9 87 0.0       96.08     LegendNANA
04:00 11.8 10.0 89 0.0       96.09     LegendNANA
05:00 11.7 10.1 90 0.0       96.11     LegendNANA
06:00 12.2 9.7 84 0.1       96.13     LegendNANA
07:00 13.0 9.4 79 0.0       96.14     LegendNANA
08:00 14.0 8.4 69 0.0       96.15     LegendNANA
09:00 14.3 8.4 68 0.0       96.15     LegendNANA
10:00 14.8 8.7 67 0.0       96.14     LegendNANA
11:00 15.9 10.2 69 0.0       96.13     LegendNANA
12:00 15.7 9.4 66 0.0       96.12     LegendNANA
13:00 15.3 10.3 72 0.0       96.11     LegendNANA
14:00 14.7 10.4 75 0.2       96.11     LegendNANA
15:00 14.4 10.8 79 0.5       96.10     LegendNANA
16:00 14.4 11.0 80 0.4       96.10     LegendNANA
17:00 14.2 10.8 80 0.6       96.12     LegendNANA
18:00 14.0 11.4 84 0.5       96.12     LegendNANA
19:00 13.7 11.2 85 0.4       96.13     LegendNANA
20:00 13.1 10.7 85 0.6       96.17     LegendNANA
21:00 13.0 11.1 88 0.5       96.19     LegendNANA
22:00 12.6 11.2 91 0.3       96.18     LegendNANA
23:00 12.3 10.5 89 0.2       96.19     LegendNANA

Notes on Data Quality.

Legend

  • E = Estimated
  • M = Missing
  • NA = Not Available*
  • [empty] = Indicates an unobserved value
Date modified: